Weather History for Pompano Beach, FL

Change the Weather History Date:

Thursday, November 17, 2011

  Actual Average Record
Temperature  
Mean Temperature 80 °F -  
Max Temperature 84 °F 81 °F 89 °F (1989)
Min Temperature 75 °F 64 °F 42 °F (1970)
Cooling Degree Days 14    
Growing Degree Days 30 (Base 50)    
Moisture  
Dew Point 73 °F    
Average Humidity 84    
Maximum Humidity 94    
Minimum Humidity 69    
Precipitation  
Precipitation 0.01 in - - ()
Sea Level Pressure  
Sea Level Pressure 30.02 in    
Wind  
Wind Speed 5 mph (SSE)    
Max Wind Speed 14 mph    
Max Gust Speed -    
Visibility 10 miles    
Events      
Averages and records for this station are not official NWS values.
T = Trace of Precipitation, MM = Missing Value Source: NWS Daily Summary

Daily Weather History Graph

Daily Weather History Graph

Search for Another Location

Airport:

Trip Planner

Search our weather history database for the weather conditions in past years. The results will help you decide how hot, cold, wet, or windy it might be!

Date:

Astronomy

Nov. 17, 2011 Rise Set
Actual Time 6:40 AM EST 5:30 PM EST
Civil Twilight 6:15 AM EST 5:54 PM EST
Nautical Twilight 5:47 AM EST 6:22 PM EST
Astronomical Twilight 5:20 AM EST 6:50 PM EST
Moon 11:36 PM EST (11/17) 11:57 AM EST (11/17)
Length of Visible Light 11h 38m
Length of Day
10h 49m
Waning Gibbous, 60% of the Moon is Illuminated
Nov 17
Waning Gibbous
Nov 18
Last Quarter
Nov 25
New
Dec 2
First Quarter
Dec 10
Full

Hourly Weather History & Observations

Time (EST) Temp. Heat Index Dew Point Humidity Pressure Visibility Wind Dir Wind Speed Gust Speed Precip Events Conditions
12:08 AM 78.8 °F - 75.2 °F 89% 30.02 in 10.0 mi SSE 6.9 mph - N/A   Mostly Cloudy
12:19 AM 78.8 °F - 75.2 °F 89% 30.01 in 10.0 mi SE 5.8 mph - N/A   Scattered Clouds
12:53 AM 78.1 °F - 75.0 °F 90% 30.01 in 10.0 mi Calm Calm - N/A   Partly Cloudy
1:08 AM 78.8 °F - 75.2 °F 89% 30.01 in 10.0 mi Calm Calm - N/A   Mostly Cloudy
1:32 AM 78.8 °F - 75.2 °F 89% 30.00 in 10.0 mi Calm Calm - N/A   Scattered Clouds
1:53 AM 75.9 °F - 73.9 °F 94% 30.00 in 9.0 mi NNW 3.5 mph - N/A   Partly Cloudy
3:53 AM 77.0 °F - 73.9 °F 90% 30.00 in 10.0 mi SSE 3.5 mph - N/A   Clear
4:53 AM 78.1 °F - 73.9 °F 87% 29.99 in 10.0 mi SSE 13.8 mph - N/A   Clear
5:53 AM 78.1 °F - 73.9 °F 87% 30.01 in 10.0 mi SSE 6.9 mph - N/A   Clear
6:53 AM 75.9 °F - 73.9 °F 94% 30.05 in 10.0 mi NW 5.8 mph - N/A   Mostly Cloudy
7:29 AM 75.2 °F - 73.4 °F 94% 30.06 in 9.0 mi NW 4.6 mph - N/A   Scattered Clouds
7:53 AM 75.9 °F - 73.0 °F 91% 30.07 in 8.0 mi WNW 4.6 mph - N/A   Scattered Clouds
8:53 AM 77.0 °F - 73.9 °F 90% 30.09 in 10.0 mi WNW 5.8 mph - N/A   Partly Cloudy
10:53 AM 82.0 °F 87.4 °F 73.0 °F 74% 30.07 in 10.0 mi WSW 3.5 mph - N/A   Scattered Clouds
11:53 AM 84.9 °F 92.1 °F 73.9 °F 69% 30.04 in 10.0 mi SE 10.4 mph - N/A   Scattered Clouds
12:53 PM 84.0 °F 90.2 °F 73.0 °F 69% 30.01 in 10.0 mi SE 10.4 mph - N/A   Partly Cloudy
1:53 PM 84.0 °F 90.2 °F 73.0 °F 69% 29.97 in 10.0 mi SSE 10.4 mph - N/A   Scattered Clouds
3:53 PM 82.9 °F 88.0 °F 72.0 °F 69% 29.96 in 10.0 mi SSE 10.4 mph - N/A   Clear
4:53 PM 81.0 °F 85.2 °F 72.0 °F 74% 29.97 in 10.0 mi SSE 9.2 mph - N/A   Partly Cloudy
5:53 PM 80.1 °F 83.8 °F 72.0 °F 76% 29.99 in 10.0 mi SSE 9.2 mph - N/A   Scattered Clouds
6:53 PM 79.0 °F - 73.0 °F 82% 30.00 in 10.0 mi SSE 5.8 mph - N/A   Scattered Clouds
7:53 PM 79.0 °F - 72.0 °F 79% 30.02 in 10.0 mi South 4.6 mph - 0.01 in   Overcast
8:53 PM 78.1 °F - 73.0 °F 84% 30.04 in 10.0 mi East 3.5 mph - N/A   Scattered Clouds
9:53 PM 78.1 °F - 73.0 °F 84% 30.05 in 10.0 mi SE 5.8 mph - N/A   Clear
10:53 PM 78.1 °F - 73.0 °F 84% 30.06 in 10.0 mi SSE 4.6 mph - N/A   Overcast
11:53 PM 75.9 °F - 72.0 °F 87% 30.05 in 10.0 mi Calm Calm - N/A   Mostly Cloudy